Regional Weather Roundup
Issued by NWS

Home | Current Version | Previous Version | Graphics & Text | Print | Product List | Glossary On
Versions: 1 2 3 4 5 6 7 8 9 10 11 12 13 14 15 16 17 18 19 20 21 22 23 24 25 26 27 28 29 30 31 32 33 34 35 36 37 38 39 40 41 42 43 44 45 46 47 48 49 50
000
ASUS43 KDTX 191210
RWRMI
MICHIGAN HOURLY REGIONAL WEATHER ROUNDUP
NATIONAL WEATHER SERVICE DETROIT/PONTIAC MI
ISSUED BY NATIONAL WEATHER SERVICE GRAND RAPIDS MI
700 AM EST SUN FEB 19 2017

NOTE: "FAIR" INDICATES FEW OR NO CLOUDS BELOW 12,000 FEET WITH NO
SIGNIFICANT WEATHER AND/OR OBSTRUCTION TO VISIBILITY.

MIZ047>049-052>055-059>063-066>070-074>076-081>083-191300-
SOUTHEAST LOWER MICHIGAN

CITY           SKY/WX    TMP DP  RH WIND       PRES   REMARKS
ADRIAN         MOCLDY    37  34  89 NW5       29.94R WCI  33
6HR MIN TEMP:  32; 6HR MAX TEMP:  42;

ALMA           CLOUDY    31  30  94 W3        29.92R
6HR MIN TEMP:  31; 6HR MAX TEMP:  40;

ANN ARBOR      CLOUDY    41  34  76 CALM      29.90R
BAD AXE        PTCLDY    33  31  93 SW5       29.88R WCI  29
6HR MIN TEMP:  31; 6HR MAX TEMP:  39;

DETROIT CITY   CLOUDY    43  36  76 W5        29.90R
6HR MIN TEMP:  42; 6HR MAX TEMP:  49;

DETROIT        MOCLDY    39  34  82 SW3       29.91R
6HR MIN TEMP:  38; 6HR MAX TEMP:  47;

FLINT          PTCLDY    37  32  82 W3        29.91R
6HR MIN TEMP:  36; 6HR MAX TEMP:  41;

GROSSE ILE     CLOUDY    39  34  83 W3        29.90R
6HR MIN TEMP:  34; 6HR MAX TEMP:  48;

HILLSDALE      PTCLDY    36  32  87 W5        29.93R WCI  32
HOWELL         PTCLDY    36  32  87 W5        29.91R WCI  32
6HR MIN TEMP:  34; 6HR MAX TEMP:  42;


CITY           SKY/WX    TMP DP  RH WIND       PRES   REMARKS
JACKSON        PTCLDY    33  31  92 W6        29.93R WCI  28
6HR MIN TEMP:  31; 6HR MAX TEMP:  41;

LANSING        CLOUDY    40  32  73 W5        29.93R
6HR MIN TEMP:  37; 6HR MAX TEMP:  44;

MASON          CLOUDY    33  32  96 CALM      29.92R
MONROE         CLOUDY    38  36  91 CALM      29.91R
6HR MIN TEMP:  35; 6HR MAX TEMP:  41;

MT. CLEMENS    CLOUDY    42  36  78 W6        29.87R
6HR MIN TEMP:  42; 6HR MAX TEMP:  47;

PONTIAC        CLOUDY    39  33  79 W6        29.88R WCI  35
6HR MIN TEMP:  37; 6HR MAX TEMP:  45;

PORT HOPE        N/A     37  32  82 SW8       29.85R WCI  31
6HR MIN TEMP:  37; 6HR MAX TEMP:  45;

PORT HURON     CLOUDY    39  36  87 CALM      29.88R
TRI CITIES     CLOUDY    37  34  89 W8        29.91R WCI  31
6HR MIN TEMP:  35; 6HR MAX TEMP:  41;

YPSILANTI      CLOUDY    43  36  76 W5        29.91R
6HR MIN TEMP:  39; 6HR MAX TEMP:  45;

$$
MIZ043>046-050>051-056>058-064>065-071>073-077>080-191300-
SOUTHWEST LOWER MICHIGAN

CITY           SKY/WX    TMP DP  RH WIND       PRES   REMARKS
BATTLE CREEK   PTCLDY    41  33  73 W3        29.95R
6HR MIN TEMP:  36; 6HR MAX TEMP:  42;

BENTON HARBOR  PTCLDY    29  26  89 CALM      29.96R
6HR MIN TEMP:  29; 6HR MAX TEMP:  34;

BIG RAPIDS     CLEAR     28  27  96 CALM      29.92R
6HR MIN TEMP:  28; 6HR MAX TEMP:  33;

COLDWATER      CLOUDY    33  33  99 W3        29.95R
6HR MIN TEMP:  31; 6HR MAX TEMP:  39;

HOLLAND        CLOUDY    40  32  73 CALM      29.95R
6HR MIN TEMP:  33; 6HR MAX TEMP:  42;

GRAND RAPIDS   CLOUDY    35  30  82 W7        29.94R WCI  29
6HR MIN TEMP:  33; 6HR MAX TEMP:  39;

KALAMAZOO      PTCLDY    32  29  88 CALM      29.95R
6HR MIN TEMP:  31; 6HR MAX TEMP:  37;

MARSHALL       PTCLDY    36  33  88 CALM      29.94R
6HR MIN TEMP:  29; 6HR MAX TEMP:  36;

MOUNT PLEASANT CLOUDY    34  31  88 W3        29.91R
6HR MIN TEMP:  34; 6HR MAX TEMP:  41;

MUSKEGON       PTCLDY    29  26  89 CALM      29.95R
6HR MIN TEMP:  29; 6HR MAX TEMP:  36;

STURGIS          N/A     33  32  99 CALM      29.95R FOG
6HR MIN TEMP:  31; 6HR MAX TEMP:  39;

$$
MIZ016>042-191300-
NORTHERN LOWER MICHIGAN

CITY           SKY/WX    TMP DP  RH WIND       PRES   REMARKS
ALPENA         CLEAR     36  31  82 W3        29.85R
6HR MIN TEMP:  29; 6HR MAX TEMP:  39;

BEAVER ISLAND  MOCLDY    39  32  75 NW6       29.90R WCI  35
6HR MIN TEMP:  33; 6HR MAX TEMP:  41;

BELLAIRE       CLEAR     24  24  98 CALM      29.91R
6HR MIN TEMP:  24; 6HR MAX TEMP:  29;

CADILLAC       CLEAR     28  27  94 CALM      29.90R
CHARLEVOIX     CLEAR     36  31  83 W9        29.92R WCI  29
6HR MIN TEMP:  36; 6HR MAX TEMP:  41;

GAYLORD        CLEAR     32  26  78 SW3       29.87R
6HR MIN TEMP:  28; 6HR MAX TEMP:  40;

HOUGHTON LAKE  PTCLDY    30  28  92 CALM      29.89R
6HR MIN TEMP:  28; 6HR MAX TEMP:  38;

MANISTEE       CLEAR     25  23  92 E3        29.93R
OSCODA         CLOUDY    34  29  83 SW7       29.86R WCI  28
6HR MIN TEMP:  32; 6HR MAX TEMP:  43;

PELLSTON       PTCLDY    28  24  85 W6        29.87R WCI  22
6HR MIN TEMP:  25; 6HR MAX TEMP:  39;

TRAVERSE CITY  PTCLDY    29  26  89 CALM      29.89R
6HR MIN TEMP:  29; 6HR MAX TEMP:  41;

LUDINGTON      FOG       27  27 100 CALM      29.93R VSB 1/2
6HR MIN TEMP:  27; 6HR MAX TEMP:  41;

$$
MIZ007>008-015-191300-
EASTERN UPPER MICHIGAN

CITY           SKY/WX    TMP DP  RH WIND       PRES   REMARKS
KINROSS        PTCLDY    35  31  85 SW3       29.84R
6HR MIN TEMP:  33; 6HR MAX TEMP:  38;

MACKINAC ISLAN PTCLDY    34  30  86 W8        29.85R WCI  27
6HR MIN TEMP:  32; 6HR MAX TEMP:  38;

NEWBERRY       PTCLDY    36  31  81 NW6       29.86R WCI  31
6HR MIN TEMP:  34; 6HR MAX TEMP:  39;

S. S. MARIE    MOCLDY    34  31  88 SW5       29.83R WCI  30
6HR MIN TEMP:  33; 6HR MAX TEMP:  42;

$$
MIZ004>006-011>014-085-191300-
CENTRAL UPPER MICHIGAN

CITY           SKY/WX    TMP DP  RH WIND       PRES   REMARKS
MANISTIQUE     PTCLDY    37  32  84 NW7       29.88R WCI  31
6HR MIN TEMP:  37; 6HR MAX TEMP:  42;

ESCANABA       CLOUDY    41  29  62 W5        29.92R
6HR MIN TEMP:  33; 6HR MAX TEMP:  47;

MENOMINEE      PTCLDY    40  28  62 CALM      29.93R
6HR MIN TEMP:  38; 6HR MAX TEMP:  43;

SAWYER-GWINN   CLEAR     34  28  80 NW9       29.90R WCI  26
$$
MIZ001>003-009>011-084-191300-
WESTERN UPPER MICHIGAN

CITY           SKY/WX    TMP DP  RH WIND       PRES   REMARKS
IRON MOUNTAIN  PTCLDY    33  25  72 W3        29.91R
6HR MIN TEMP:  32; 6HR MAX TEMP:  44;

HOUGHTON       CLEAR     29  26  89 NW6       29.90R WCI  23
6HR MIN TEMP:  29; 6HR MAX TEMP:  41;

COPPER HARBOR    N/A     36  31  82 N7        29.90R WCI  30
6HR MIN TEMP:  36; 6HR MAX TEMP:  45;

IRONWOOD       PTCLDY    28  26  92 CALM      29.94R
6HR MIN TEMP:  26; 6HR MAX TEMP:  41;

$$

ABBREVIATIONS USED IN REMARKS
   TC - TEMPERATURE IN CELSIUS
  WCI - WIND CHILL INDEX
   HX - HEAT INDEX
  VSB - VISIBILITY





USA.gov is the U.S. government's official web portal to all federal, state and local government web resources and services.